Terminal Aerodrome Forecast
Issued by NWS

Home | Current Version | Previous Version | Text Only | Print | Product List | Glossary On
Versions: 1 2 3 4 5 6 7 8 9 10 11 12 13 14 15 16 17 18
000
FTUS44 KMAF 232300
TAFFST
TAF
KFST 232321Z 2400/2424 10012G19KT P6SM FEW100
     FM240100 13007KT P6SM FEW100
     FM242100 11011G17KT P6SM FEW200=

USA.gov is the U.S. government's official web portal to all federal, state and local government web resources and services.